FW9684 Weather Reports


time (UTC)temp
C
wind
direction
speed
KPH
gust
KPH
rain 1hr
cm
rain 24hr
cm
rain mn
cm
humidity
%
barometer
mb
20260507093041 8 26 1.6 6.4 0.00 0.00 0.00 85 1020.6
20260507091538 9 38 3.2 8.0 0.00 0.00 0.00 85 1020.5
20260507090035 9 14 3.2 8.0 0.00 0.00 0.00 84 1020.4
20260507084532 10 30 1.6 9.7 0.00 0.00 0.00 84 1020.1
20260507083029 10 27 3.2 9.7 0.00 0.00 0.00 83 1019.7
20260507081532 10 24 3.2 8.0 0.00 0.00 0.00 82 1019.8
20260507080023 11 41 3.2 9.7 0.00 0.00 0.00 81 1019.8
20260507074529 11 51 4.8 12.9 0.00 0.00 0.00 81 1019.7
20260507073019 11 30 6.4 16.1 0.00 0.00 0.00 80 1019.6
20260507071517 11 46 8.0 17.7 0.00 0.00 0.00 80 1019.6
20260507070014 11 44 8.0 14.5 0.00 0.00 0.00 80 1019.2
20260507064510 11 40 4.8 8.0 0.00 0.00 0.00 78 1019.1
20260507063007 11 35 1.6 4.8 0.00 0.00 0.00 76 1018.9
20260507061503 11 38 3.2 11.3 0.00 0.00 0.00 76 1018.5
20260507060002 12 40 3.2 9.7 0.00 0.00 0.00 75 1018.5
20260507054556 12 58 1.6 8.0 0.00 0.00 0.00 73 1018.1
20260507053054 12 34 3.2 11.3 0.00 0.00 0.00 72 1017.8
20260507051551 12 65 4.8 9.7 0.00 0.00 0.00 71 1017.7
20260507050050 13 44 3.2 9.7 0.00 0.00 0.00 70 1017.5
20260507044547 13 50 4.8 9.7 0.00 0.00 0.00 69 1017.4
20260507043048 13 46 3.2 16.1 0.00 0.00 0.00 68 1017.4
20260507041547 13 46 6.4 17.7 0.00 0.00 0.00 67 1017.0
20260507040042 14 52 8.0 16.1 0.00 0.00 0.00 66 1017.1
20260507034551 14 66 6.4 17.7 0.00 0.00 0.00 65 1016.9
20260507033057 15 65 6.4 16.1 0.00 0.00 0.00 64 1016.7
20260507031538 15 66 9.7 17.7 0.00 0.00 0.00 63 1016.5
20260507030036 15 67 6.4 20.9 0.00 0.00 0.00 61 1016.3
20260507024536 16 55 4.8 17.7 0.00 0.00 0.00 59 1016.2
20260507023031 16 56 4.8 16.1 0.00 0.00 0.00 58 1015.7
20260507021530 16 51 6.4 20.9 0.00 0.00 0.00 56 1015.5
20260507020032 17 68 8.0 16.1 0.00 0.00 0.00 55 1015.2
20260507014528 17 67 8.0 17.7 0.00 0.00 0.00 53 1015.1
20260507013027 17 85 8.0 17.7 0.00 0.00 0.00 51 1014.8
20260507011527 18 77 12.9 22.5 0.00 0.00 0.00 50 1014.8
20260507010033 18 68 11.3 22.5 0.00 0.00 0.00 49 1014.5
20260507004525 20 73 9.7 20.9 0.00 0.00 0.00 48 1014.2
20260507003024 20 50 9.7 24.1 0.00 0.00 0.00 47 1014.1
20260507001529 20 49 9.7 20.9 0.00 0.00 0.00 46 1014.0
20260507000028 20 79 9.7 17.7 0.00 0.00 0.00 47 1014.0
20260506234541 20 68 9.7 20.9 0.00 0.00 0.00 47 1013.9
20260506233023 21 74 9.7 22.5 0.00 0.00 0.00 45 1013.9
20260506231522 20 40 6.4 20.9 0.00 0.00 0.00 45 1013.8
20260506230021 20 49 12.9 20.9 0.00 0.00 0.00 45 1013.7
20260506224527 21 9 11.3 24.1 0.00 0.00 0.00 45 1013.6
20260506223022 21 16 8.0 20.9 0.00 0.00 0.00 44 1013.6
20260506221519 21 51 6.4 16.1 0.00 0.00 0.00 44 1013.5
20260506220030 21 63 8.0 16.1 0.00 0.00 0.00 45 1013.3
20260506214514 20 217 11.3 19.3 0.00 0.00 0.00 46 1013.6
20260506213012 20 47 4.8 20.9 0.00 0.00 0.00 48 1013.5
20260506211518 20 31 9.7 20.9 0.00 0.00 0.00 49 1013.6
20260506210009 19 30 6.4 19.3 0.00 0.00 0.00 49 1013.8
20260506204504 18 68 6.4 19.3 0.00 0.00 0.00 51 1014.0
20260506203103 17 38 4.8 17.7 0.00 0.00 0.00 54 1014.0
20260506201556 17 48 4.8 16.1 0.00 0.00 0.00 56 1014.3
20260506200054 16 37 8.0 17.7 0.00 0.00 0.00 56 1014.2
20260506194553 16 51 6.4 14.5 0.00 0.00 0.00 59 1014.3
20260506193052 15 5 4.8 14.5 0.00 0.00 0.00 60 1014.3
20260506191545 15 40 3.2 16.1 0.00 0.00 0.00 62 1014.5
20260506190044 15 62 3.2 17.7 0.00 0.00 0.00 63 1014.5
20260506184543 14 70 3.2 16.1 0.00 0.00 0.00 64 1014.7
20260506183043 14 5 6.4 20.9 0.00 0.00 0.00 65 1014.7
20260506181558 14 32 6.4 16.1 0.00 0.00 0.00 66 1014.8
20260506180041 13 22 9.7 24.1 0.00 0.00 0.00 67 1014.9
20260506174539 13 41 9.7 20.9 0.00 0.00 0.00 67 1015.0
20260506173054 13 34 11.3 22.5 0.00 0.00 0.00 68 1015.2
20260506171544 13 26 11.3 20.9 0.00 0.00 0.00 69 1015.0
20260506170037 13 31 11.3 24.1 0.00 0.00 0.00 70 1014.9
20260506164537 12 46 6.4 22.5 0.00 0.00 0.00 73 1014.9
20260506163036 12 360 9.7 20.9 0.00 0.00 0.00 74 1014.9
20260506161533 12 38 12.9 22.5 0.00 0.00 0.00 75 1014.8
20260506160039 11 19 8.0 22.5 0.00 0.00 0.00 77 1014.6
20260506154532 11 17 6.4 25.7 0.00 0.00 0.00 78 1014.6
20260506153032 10 40 16.1 24.1 0.00 0.00 0.00 79 1014.6
20260506151532 10 38 12.9 24.1 0.00 0.00 0.00 81 1014.8
20260506150029 10 31 9.7 24.1 0.00 0.00 0.00 83 1014.8
20260506144526 10 17 11.3 25.7 0.00 0.00 0.00 82 1014.8
20260506143026 10 19 11.3 24.1 0.00 0.00 0.00 83 1014.5
20260506141522 10 26 12.9 20.9 0.00 0.00 0.00 82 1014.6
20260506140021 9 41 11.3 24.1 0.00 0.00 0.00 83 1014.4
20260506134523 9 17 9.7 22.5 0.00 0.00 0.00 83 1014.5
20260506133016 9 40 12.9 25.7 0.00 0.00 0.00 83 1014.0
20260506131535 9 45 9.7 25.7 0.00 0.00 0.00 82 1013.9
20260506130012 10 47 12.9 25.7 0.00 0.00 0.00 82 1013.7
20260506124506 9 24 12.9 25.7 0.00 0.00 0.00 82 1013.1
20260506123003 9 39 17.7 27.4 0.00 0.00 0.00 83 1012.3
20260506121602 9 17 11.3 29.0 0.00 0.00 0.00 83 1011.9
20260506120057 9 42 14.5 27.4 0.00 0.00 0.00 83 1011.5
20260506114553 10 32 9.7 25.7 0.00 0.00 0.00 81 1011.3
20260506113049 10 5 6.4 25.7 0.00 0.00 0.00 80 1011.3
20260506111546 10 21 8.0 27.4 0.00 0.00 0.00 81 1011.0
20260506110043 10 24 4.8 24.1 0.00 0.00 0.00 80 1010.9
20260506104546 10 26 9.7 22.5 0.00 0.00 0.00 79 1010.8
20260506103039 10 27 8.0 22.5 0.00 0.00 0.00 79 1010.9
20260506101533 10 29 8.0 19.3 0.00 0.00 0.00 78 1010.9
20260506100036 10 34 6.4 17.7 0.00 0.00 0.00 78 1010.5
20260506094534 11 23 8.0 14.5 0.00 0.00 0.00 80 1010.5